Stündliche Wetter Aberkenfig

Heute, 17 Juni, Donnerstag

Zeit Temperatur Niederschläge Wind Luftdruck Luftfeuchtigkeit
00:00 +13°C° 0 mm 4 m/S 747 mmHg 91%
01:00 +12°C° 0 mm 4 m/S 747 mmHg 89%
02:00 +12°C° 0 mm 4 m/S 747 mmHg 88%
03:00 +11°C° 0 mm 3 m/S 747 mmHg 87%
04:00 +12°C° 0 mm 3 m/S 747 mmHg 85%
05:00 +12°C° 0 mm 3 m/S 747 mmHg 84%
06:00 +12°C° 0 mm 3 m/S 747 mmHg 82%
07:00 +13°C° 0 mm 3 m/S 748 mmHg 81%
08:00 +13°C° 0 mm 3 m/S 748 mmHg 79%
09:00 +14°C° 0 mm 3 m/S 748 mmHg 78%
10:00 +16°C° 0 mm 3 m/S 748 mmHg 74%
11:00 +17°C° 0 mm 3 m/S 749 mmHg 71%
12:00 +18°C° 0 mm 3 m/S 749 mmHg 68%
13:00 +18°C° 0 mm 3 m/S 749 mmHg 67%
14:00 +19°C° 0 mm 4 m/S 749 mmHg 66%
15:00 +19°C° 0 mm 4 m/S 749 mmHg 65%
16:00 +17°C° 0 mm 5 m/S 750 mmHg 69%
17:00 +16°C° 0 mm 5 m/S 750 mmHg 73%
18:00 +15°C° 0 mm 5 m/S 750 mmHg 76%
19:00 +14°C° 0 mm 4 m/S 751 mmHg 78%
20:00 +13°C° 0 mm 4 m/S 751 mmHg 80%
21:00 +12°C° 0 mm 4 m/S 751 mmHg 82%
22:00 +12°C° 0 mm 3 m/S 751 mmHg 82%
23:00 +12°C° 0 mm 3 m/S 752 mmHg 81%

Morgen, 18 Juni, Freitag

Zeit Temperatur Niederschläge Wind Luftdruck Luftfeuchtigkeit
00:00 +13°C° 0 mm 2 m/S 752 mmHg 81%
01:00 +11°C° 0 mm 3 m/S 752 mmHg 81%
02:00 +11°C° 0 mm 3 m/S 752 mmHg 82%
03:00 +11°C° 0 mm 3 m/S 752 mmHg 82%
04:00 +11°C° 0 mm 3 m/S 752 mmHg 82%
05:00 +11°C° 0 mm 3 m/S 752 mmHg 82%
06:00 +12°C° 0 mm 2 m/S 752 mmHg 82%
07:00 +12°C° 0 mm 3 m/S 752 mmHg 76%
08:00 +14°C° 0 mm 3 m/S 752 mmHg 70%
09:00 +16°C° 0 mm 3 m/S 752 mmHg 65%
10:00 +17°C° 0 mm 3 m/S 752 mmHg 64%
11:00 +17°C° 0 mm 3 m/S 752 mmHg 64%
12:00 +18°C° 0 mm 3 m/S 752 mmHg 64%
13:00 +18°C° 0 mm 3 m/S 752 mmHg 65%
14:00 +18°C° 0 mm 3 m/S 752 mmHg 67%
15:00 +18°C° 0 mm 3 m/S 752 mmHg 68%
16:00 +17°C° 0 mm 2 m/S 752 mmHg 70%
17:00 +17°C° 0 mm 2 m/S 752 mmHg 73%
18:00 +17°C° 0 mm 2 m/S 752 mmHg 75%
19:00 +16°C° 0 mm 2 m/S 752 mmHg 78%
20:00 +14°C° 0 mm 2 m/S 752 mmHg 81%
21:00 +13°C° 0 mm 2 m/S 752 mmHg 84%
22:00 +13°C° 0 mm 2 m/S 752 mmHg 85%
23:00 +12°C° 0 mm 2 m/S 752 mmHg 87%

übermorgen, 19 Juni, Samstag

Zeit Temperatur Niederschläge Wind Luftdruck Luftfeuchtigkeit
00:00 +12°C° 0 mm 2 m/S 752 mmHg 88%
01:00 +11°C° 0 mm 1 m/S 752 mmHg 89%
02:00 +11°C° 0 mm 1 m/S 752 mmHg 90%
03:00 +10°C° 0 mm 1 m/S 751 mmHg 91%
04:00 +11°C° 0 mm 1 m/S 751 mmHg 90%
05:00 +12°C° 0 mm 1 m/S 751 mmHg 89%
06:00 +12°C° 0 mm 0 m/S 751 mmHg 88%
07:00 +14°C° 0 mm 1 m/S 751 mmHg 86%
08:00 +15°C° 0 mm 2 m/S 751 mmHg 84%
09:00 +16°C° 0 mm 3 m/S 751 mmHg 83%
10:00 +17°C° 0.1 mm 4 m/S 750 mmHg 79%
11:00 +18°C° 0.1 mm 4 m/S 750 mmHg 75%
12:00 +19°C° 0.1 mm 5 m/S 749 mmHg 71%
13:00 +17°C° 0.1 mm 5 m/S 749 mmHg 76%
14:00 +17°C° 0.1 mm 4 m/S 748 mmHg 82%
15:00 +15°C° 0.1 mm 4 m/S 748 mmHg 87%
16:00 +15°C° 0.1 mm 4 m/S 747 mmHg 87%
17:00 +15°C° 0.1 mm 4 m/S 747 mmHg 87%
18:00 +16°C° 0.1 mm 3 m/S 746 mmHg 88%
19:00 +15°C° 0.9 mm 4 m/S 745 mmHg 91%
20:00 +14°C° 0.9 mm 4 m/S 745 mmHg 94%
21:00 +14°C° 0.9 mm 4 m/S 745 mmHg 97%
22:00 +14°C° 2.6 mm 4 m/S 744 mmHg 97%
23:00 +14°C° 2.6 mm 4 m/S 744 mmHg 98%

20 Juni, Sonntag

Zeit Temperatur Niederschläge Wind Luftdruck Luftfeuchtigkeit
00:00 +14°C° 2.6 mm 3 m/S 743 mmHg 98%
01:00 +14°C° 0.6 mm 3 m/S 742 mmHg 98%
02:00 +15°C° 0.6 mm 2 m/S 742 mmHg 98%
03:00 +15°C° 0.6 mm 2 m/S 741 mmHg 98%
04:00 +15°C° 1.2 mm 2 m/S 740 mmHg 98%
05:00 +15°C° 1.2 mm 2 m/S 740 mmHg 99%
06:00 +15°C° 1.2 mm 2 m/S 740 mmHg 99%
07:00 +15°C° 0.6 mm 2 m/S 740 mmHg 99%
08:00 +15°C° 0.6 mm 2 m/S 740 mmHg 98%
09:00 +15°C° 0.6 mm 2 m/S 740 mmHg 98%
10:00 +16°C° 0.1 mm 2 m/S 740 mmHg 93%
11:00 +18°C° 0.1 mm 1 m/S 740 mmHg 88%
12:00 +19°C° 0.1 mm 1 m/S 739 mmHg 83%
13:00 +18°C° 0.7 mm 2 m/S 739 mmHg 82%
14:00 +19°C° 0.7 mm 4 m/S 739 mmHg 82%
15:00 +19°C° 0.7 mm 5 m/S 739 mmHg 81%
16:00 +17°C° 0.7 mm 5 m/S 739 mmHg 84%
17:00 +17°C° 0.7 mm 5 m/S 739 mmHg 87%
18:00 +16°C° 0.7 mm 5 m/S 739 mmHg 90%
19:00 +15°C° 0.3 mm 4 m/S 739 mmHg 91%
20:00 +14°C° 0.3 mm 3 m/S 740 mmHg 93%
21:00 +13°C° 0.3 mm 3 m/S 740 mmHg 94%
22:00 +12°C° 0 mm 3 m/S 740 mmHg 94%
23:00 +12°C° 0 mm 3 m/S 740 mmHg 95%

21 Juni, Montag

Zeit Temperatur Niederschläge Wind Luftdruck Luftfeuchtigkeit
00:00 +11°C° 0 mm 3 m/S 740 mmHg 95%
01:00 +11°C° 0 mm 3 m/S 740 mmHg 95%
02:00 +11°C° 0 mm 3 m/S 740 mmHg 96%
03:00 +11°C° 0 mm 3 m/S 740 mmHg 96%
04:00 +12°C° 0 mm 3 m/S 740 mmHg 96%
05:00 +12°C° 0 mm 3 m/S 740 mmHg 96%
06:00 +13°C° 0 mm 3 m/S 740 mmHg 96%
07:00 +14°C° 0.2 mm 3 m/S 740 mmHg 94%
08:00 +14°C° 0.2 mm 3 m/S 740 mmHg 92%
09:00 +16°C° 0.2 mm 3 m/S 740 mmHg 90%
10:00 +16°C° 0.7 mm 2 m/S 740 mmHg 87%
11:00 +17°C° 0.7 mm 2 m/S 740 mmHg 84%
12:00 +18°C° 0.7 mm 2 m/S 740 mmHg 81%
13:00 +18°C° 1.1 mm 2 m/S 740 mmHg 81%
14:00 +18°C° 1.1 mm 3 m/S 741 mmHg 82%
15:00 +17°C° 1.1 mm 3 m/S 741 mmHg 83%
16:00 +15°C° 0.7 mm 5 m/S 741 mmHg 86%
17:00 +14°C° 0.7 mm 7 m/S 741 mmHg 90%
18:00 +12°C° 0.7 mm 8 m/S 742 mmHg 93%
19:00 +11°C° 0.1 mm 8 m/S 743 mmHg 92%
20:00 +10°C° 0.1 mm 8 m/S 743 mmHg 91%
21:00 +10°C° 0.1 mm 8 m/S 744 mmHg 91%
22:00 +10°C° 0 mm 8 m/S 745 mmHg 90%
23:00 +9°C° 0 mm 8 m/S 745 mmHg 89%

22 Juni, Dienstag

Zeit Temperatur Niederschläge Wind Luftdruck Luftfeuchtigkeit
00:00 +9°C° 0 mm 8 m/S 746 mmHg 88%
01:00 +9°C° 0 mm 8 m/S 746 mmHg 85%
02:00 +8°C° 0 mm 9 m/S 747 mmHg 82%
03:00 +8°C° 0 mm 9 m/S 747 mmHg 79%
04:00 +9°C° 0 mm 8 m/S 748 mmHg 81%
05:00 +9°C° 0 mm 8 m/S 748 mmHg 82%
06:00 +8°C° 0 mm 7 m/S 749 mmHg 83%
07:00 +9°C° 0.1 mm 7 m/S 749 mmHg 82%
08:00 +9°C° 0.1 mm 7 m/S 750 mmHg 82%
09:00 +9°C° 0.1 mm 7 m/S 750 mmHg 81%
10:00 +9°C° 0 mm 7 m/S 751 mmHg 77%
11:00 +10°C° 0 mm 7 m/S 751 mmHg 74%
12:00 +10°C° 0 mm 7 m/S 751 mmHg 70%
13:00 +10°C° 0 mm 7 m/S 751 mmHg 70%
14:00 +11°C° 0 mm 7 m/S 752 mmHg 71%
15:00 +11°C° 0 mm 7 m/S 752 mmHg 71%
16:00 +11°C° 0 mm 7 m/S 752 mmHg 72%
17:00 +12°C° 0 mm 7 m/S 752 mmHg 73%
18:00 +12°C° 0 mm 7 m/S 752 mmHg 74%
19:00 +10°C° 0 mm 6 m/S 753 mmHg 79%
20:00 +9°C° 0 mm 6 m/S 753 mmHg 84%
21:00 +8°C° 0 mm 5 m/S 753 mmHg 88%
22:00 +8°C° 0 mm 4 m/S 753 mmHg 90%
23:00 +7°C° 0 mm 4 m/S 753 mmHg 91%
Mehr zeigen

Wir brauchen deine Erlaubnis

Meteoprog und unser Service Anbieter werden persönliche Daten aufbewahren, so wie Cookies, Geräte Bezeichnung oder ähnliche Technologien von deinem Gerät und Prozess, so wie Persönliche Daten Inhalte und Werbungen, genauso wie social Media und den Verkehr zu analysieren.

  • Aufbewahrung und/oder Zugang zu deiner Geräte Informationen.

    Cookies, Geräte Bezeichnung oder andere Informationen, können aufbewahrt oder Zugang zu deinem Gerät erhalten, für den Grund, der oben angegeben wird.

  • Personalisierte Werbung und Inhalte, Messungen, Einblick in das Publikum und Produkt Entwicklung.

    Werbungen und Inhalte können personalisiert werden, basierend auf ein Profil. Mehr Daten können besser personalisierte Werbungen und Inhalte hinzufügen. Werbung und Inhalte können gezeigt und gemessen werden. Einblicke über das Publikum, welche die Werbung gesehen haben und den Inhalt, können abgeleitet werden. So wie Daten können genutzt werden, um es zu verbessern oder die Benutzer Erfahrung zu verbessern das System und die Software.

Wenn du “Ich stimme zu” klickst, erlaubst du uns, die Cookies zu benutzen die Geräte Bezeichnung, den Web oder ähnliche Technologien zu benutzen. Deine Settings, können in deinem Gerät bei deinem Browser geändert werden.

Für den bestimmten Zweck, berechtigten Interessen beruhen darauf, mehr als auf den Inhalt. Du kannst mehr darüber in unseren Privaten und Cookie Politik lesen.